[Date Prev][Date Next][Thread Prev][Thread Next][Date Index][Thread Index]

[jamsat-news:643] ANS-257 WEEKLY BULLETINS


Please notify listserv@amsat.org if you would like to subscribe,
un-subscribe or change your Internet address for any of the AMSAT
lists. You may request to be added or deleted from the following
lists: AMSAT-BB, ANS, SAREX, or KEPS. Please *do not* send such
requests to the lists themselves.

SB SAT @ AMSAT  $ANS-257.01
SPECIAL EVENT STATION

HR AMSAT NEWS SERVICE BULLETIN 257.01 FROM AMSAT HQ
SILVER SPRING, MD, SEPTEMBER 14,1997
TO ALL RADIO AMATEURS BT
BID: $ANS-257.01

The Virginia Air & Space Center, (VASC is located in Hampton, VA, USA),
Amateur Radio Group, Inc., will operate KE4ZXW as a Special Events
Station on September 27-28, 1997. The VASC Amateur Radio Group is
celebrating two years of uninterrupted 9600 baud automatic satellite
operation at the VASC Amateur radio exhibit.  The Special Event Station
will operate via KO-23 or KO-25, on both days, from 0000 to 2200 UTC.
We will also operate HF from 1500 to 2200 UTC on 7.625 MHz at the top of
the hour, and 14.265 MHz at thirty minutes past each hour.  An
Anniversary QSL card will be issued to those sending a QSL and a SASE
to: Ed Brummer, W4RTZ, 108 Oyster Cove Road, Yorktown, VA 23692. (USA).

[ANS thanks  Wally Carter, K4OGT , KE4ZXW Control Operator
for this report.]

/EX

SB SAT @ AMSAT  $ANS-257.02
NORTH TEXAS BALLOON PROJECT

HR AMSAT NEWS SERVICE BULLETIN 257.02 FROM AMSAT HQ
SILVER SPRING, MD, SEPTEMBER 14,1997
TO ALL RADIO AMATEURS BT
BID: $ANS-257.02

The North Texas Balloon Project successfully launched its second high
altitude balloon mission of 1997 on September 6th at 1539 UTC from Clifton
Municipal Airport. Estimated burst altitude was 92,000 ft and the flight
duration was just over two hours. Once again, HF net coverage was provided
by Keith Pugh - W5IU.

There were a significant number of experiments on NTBP#8 and almost
everything worked as expected. The crossband repeater, digipeater, and
parrot repeater all worked flawlessly throughout the flight. The 35 mm still
camera appears to have functioned well and we expect to have some great
photos in about a week. The GPS had some problems acquiring satellites in
the beginning, but appears to have performed better as the flight
progressed. It appears that the Tripmate GPS receiver does indeed have an
altitude limitation, however it resumed good position reporting during the
descent. The new 1.2 GHz FM ATV transmitter worked very well and they were
extremely impressed with the video quality. Unfortunately, the ATV antenna
departed its payload shortly after descent began due to excessive
aerodynamic forces.

The payload was recovered about 10 minutes after landing  and all DFing
teams were at the landing site within 30 minutes of landing. Some of the
DFing teams used GPS downlink information for the APRSA4 and Street Atlas
USA software combination, and it worked extremely well. Other DFing teams
used simple yagis or doppler units. The recovery team performed very well
considering that the payload traveled nearly twice the distance (30.5
miles) as the predicted 17.8 miles. Some units even beat the chase plane to
the scene! The payload landed approximately 7 miles south-southwest of
Hico, TX.  Good job Recovery Team.

At the conclusion of  NTBP#8, Doug Howard,  KG5OA, stepped down as project
coordinator in order to devote more time to his family. The project will
continue on as it always has since it has always been a large team effort
anyway.

To keep up to date on the latest NTBP activities, check the following URL
periodically:

http://procorp.com/procorp/ntbp/index.htm

[ANS thanks Doug Howard, KG5OA, for this information.]

/EX

SB SAT @ AMSAT  $ANS-257.03
GPS EXPERIMENT PLANNED

HR AMSAT NEWS SERVICE BULLETIN 257.03 FROM AMSAT HQ
SILVER SPRING, MD, SEPTEMBER 14,1997
TO ALL RADIO AMATEURS BT
BID: $ANS-257.03

Cadets and Faculty of the United States Air Force Academy,
in cooperation with University of Colorado-Colorado Springs
have designed a small space payload that will be launched
on an Atlas rocket the last week in October.

This mission, named Falcon Gold, will be responsible for
sampling the Global Positioning System (GPS) signal from behind
the GPS constellation and downlinking spectrum samples to
ground stations for post processing.

Due to its short 3-week life, and their limited number of ground
stations, they are looking for volunteers around the world to collect
telemetry and mission data from the satellite during its 3 week
life and forward electronic copies to the Air Force Academy
for post processing.

The satellite will broadcast on 400.175 MHz, accessible from
many scanners and Amateur Radio equipment.  Modulation will
be the same 9600 bps, AX.25 standard used in the Amateur Radio
community.  More information can be found at URL
http://www.pcisys.net/~mork/ or contacting morkbj.dfc@usafa.af.mil.

/EX


SB SAT @ AMSAT  $ANS-257.04
STS-86 KEPS

HR AMSAT NEWS SERVICE BULLETIN 257.04 FROM AMSAT HQ
SILVER SPRING, MD, SEPTEMBER 14,1997
TO ALL RADIO AMATEURS BT
BID: $ANS-257.04

Below is the nominal State Vector and Keplerian Elements for
STS-86.  The vector data comes from NASA; the Keplerian Elements
were computed from the vector.   This is not a SAREX mission.

This file may be read by VEC2TLE version 9648 to update your
Keplerian Elements text file.

Vector format = 10117
Satellite Name:         STS-86
Catalog Number:         99986
Epoch MET:                  0.02975694400
                           0/00:42:51.000 MET
EFG E:                   7313782.00000000 ft
    F:                   20453348.3999999 ft
    G:                   -2777407.6000000 ft
    Edot:                -14256.741571000 ft/s
    Fdot:                2435.99972699995 ft/s
    Gdot:                -19604.660624000 ft/s
ndot/2 (drag):              0.00055707642 rev/day^2
nddt/6:                       1.29288E-08 rev/day^3
Bstar:                        9.63231E-05 1/Earth Radii
Elset #:                                1
Rev @ Epoch:                1.52584013430

Scheduled Launch: 26-SEP-97 / 02:34:06 UTC

Note that "99986" is only a temporary Catalog Number.  Once STS-86
is launched, a permanent Catalog Number and International Designator
will be assigned.

The following Keplerian elements were computed by VEC2TLE from this
vector, using a 1.0 drag multiplier:

STS-86
1 99986U 97269.13677083  .00055708  12929-7  96323-4 0    15
2 99986  51.6599 298.7248 0033349 356.0335 193.2612 16.00410322    19

Satellite: STS-86
Catalog number: 99986
Epoch time:      97269.13677083
Element set:       1
Inclination:       51.6599 deg
RA of node:       298.7248 deg
Eccentricity:    0.0033349
Arg of perigee:   356.0335 deg
Mean anomaly:     193.2612 deg
Mean motion:   16.00410322 rev/day
Decay rate:    5.57076e-04 rev/day^2
Epoch rev:               1
Checksum:              328

VEC2TLE may be downloaded from:

http://www.amsat.org/amsat/sarex/orbit.html

[ANS thanks Ken Ernandes, N2WWD, for this data.]

/EX

SB SAT @ AMSAT  $ANS-257.05
BIT AND PIECES

HR AMSAT NEWS SERVICE BULLETIN 257.045 FROM AMSAT HQ
SILVER SPRING, MD, SEPTEMBER 14,1997
TO ALL RADIO AMATEURS BT
BID: $ANS-257.05

The AMSAT-NA office will be closed the week of September 15th.
Daisy and Martha will be on vacation!!

ANGOLA, D2.  Look for CT4KO to be QRV as D2AI starting September 15.
He will be active on 80 to 10 meters, including 24 and 18 meters,
using SSB and RTTY.  Some RS-12 satellite activity is expected.  He
will try to schedule some activity on 6 meters.  QSL via CT1EGH.
[ANS thanks the ARRL for this DX information.]

/EX

SB SAT @ AMSAT  $ANS-257.06
WEEKLY SATELLITE REPORT PT 1

HR AMSAT NEWS SERVICE BULLETIN 257.06 FROM AMSAT HQ
SILVER SPRING, MD, SEPTEMBER 14,1997
TO ALL RADIO AMATEURS BT
BID: $ANS-257.06

MIR:

MIREX will be running  the test from September 6, until September 28 1997
world wide. After the completion of the test, they will switch the MIR PMS
frequency back to the current 2-meter frequency on September 29th.
See ANS Bulletin ANS-250.02 for more information. Test frequency is
437.650 MHz.
BJ Arts, WT0N reports  that he had a very nice horizon to horizon chat with
Mike Foale, KB5UAC., during the 1615 UTC pass of MIR on September 8th.
Total time of the QSO was approx. 13 minutes. BJ said every time he has
talks to the MIR space station his hands get wet, it reminds him of his
first QSO, and this time it was no different. Mike and WT0N chatted about
his EVA and about Minnesota. KB5UAC said when he gets down from MIR he
wants to go somewhere warm and vacation. Mike had commented that the 70 cm
frequency was working much better than the 2 meter frequency. Both voice
and packet are doing well on the test 70 cm frequency. WT0N said he owes a
debt of thanks to KB0VBZ for his post on how to program memories to better
keep up with the vast doppler shift on 70 cm.  The rig BJ used was an
FT-736 R, running 5 watts into an 18 element M2 antenna. The
tracking software during  the pass was InstandTrack, running on a 286. In
the 286 WT0N has a Kansas City tracker/tuner that runs both his FT-736 and
FT-5400b AZ/EL rotor.
As Mike and WT0N chatted,  Mike compared his EVA  to
deep sea diving. It is very dark in space he said, but he stated he also had
a great view of the stars. He mentioned to that the spacesuit was
comfortable. Mike thanked the hams who provide the MIR space station with
news via packet.  Also,  some hams have been sending jpg files that he
enjoys looking at.  Mike suggested to keep the size of the jpg files to 10 K
bits or less.

SAFEX, MIR 70 cm Repeater
(Uplink 435.750 MHz FM, Downlink 437.950 MHz FM,
Subaudible tone 141.3 Hz)
Not operational at this time.

RS-10
(Uplink 145.865-145.905 MHz CW/SSB, Downlink 29.36-29.4 MHz CW/SSB)
RS-10 Still silent.

